[[{"header":{"parameterUnit":"m.s-1","parameterCategory":2,"la1":30.2991,"la2":30.254,"lo1":-89.0895,"lo2":-89.0444,"dy":0.0017,"dx":0.0017,"nx":28,"ny":28,"refTime":"2025-09-06T21:00:00:Z","depth":"0","parameterNumber":2,"parameterNumberName":"U-component_of_CURRENTS"},"data":[0,0,0,0,0,0,0,0,0,0,0,0,0,0,0,0,0,0,0,0,0,0,0,0,0,0,0,0,0,0,0,0,0,0,0,0,0,0,0,0,0,0,0,0,0,0,0,0,0,0,0,0,0,0,0,0,0,0,-0.3048,-0.3049,0,-0.3101,-0.3101,-0.3102,-0.3074,-0.3073,-0.3072,-0.307,-0.3051,-0.3052,-0.3053,0,0,0,0,0,0,0,0,0,0,0,0,0,-0.2932,-0.2934,-0.3048,-0.3049,-0.305,-0.3101,-0.3101,-0.3102,-0.3074,-0.3073,-0.3071,-0.307,-0.3051,-0.3052,-0.3053,0,0,0,0,0,0,0,0,0,0,0,0,0,-0.2982,-0.2934,-0.3048,-0.3043,-0.3043,-0.3101,-0.3101,-0.3102,-0.3075,-0.3073,-0.3071,-0.3069,-0.3051,-0.3052,-0.3053,-0.3098,0,0,-0.3056,-0.3057,0,0,0,0,0,0,0,0,-0.2979,-0.2986,-0.3043,-0.3044,-0.3044,-0.308,-0.3054,-0.3098,-0.3075,-0.3061,-0.307,-0.3068,-0.3057,-0.3057,-0.307,-0.3097,-0.3096,-0.3056,-0.3057,-0.3057,-0.3058,0,0,0,0,0,0,0,-0.2975,-0.2983,-0.3067,-0.3044,-0.3045,-0.3041,-0.3046,-0.3062,-0.3067,-0.3062,-0.3061,-0.307,-0.3056,-0.307,-0.307,-0.3096,-0.3056,-0.3057,-0.3058,-0.3058,-0.3135,-0.3137,0,0,0,0,0,0,-0.2974,-0.2981,-0.3066,-0.3069,-0.3008,-0.3045,-0.305,-0.3069,-0.3068,-0.3067,-0.3071,-0.3068,-0.3069,-0.3068,-0.3069,-0.311,-0.3057,-0.3058,-0.3059,-0.3134,-0.3135,-0.3137,0,0,0,0,0,0,-0.2972,-0.2982,-0.3064,-0.3026,-0.3036,-0.3049,-0.3071,-0.3071,-0.3078,-0.3076,-0.3073,-0.3076,-0.3067,-0.3067,-0.3096,-0.3109,-0.3059,-0.306,-0.3132,-0.3134,-0.3136,-0.32,0,0,0,0,0,0,-0.2968,-0.2981,-0.299,-0.3027,-0.3039,-0.3103,-0.3073,-0.3074,-0.3088,-0.3084,-0.308,-0.3076,-0.3066,-0.3095,-0.3098,-0.311,-0.306,-0.313,-0.3133,-0.3136,-0.3196,-0.3204,-0.3211,0,0,0,0,0,-0.2964,-0.2989,-0.2991,-0.3001,-0.3053,-0.3105,-0.3111,-0.3111,-0.309,-0.3107,-0.3108,-0.3076,-0.3112,-0.3099,-0.31,-0.3113,-0.3129,-0.3132,-0.3135,-0.3193,-0.3203,-0.3211,0,0,0,0,0,0,-0.2935,-0.299,-0.2992,-0.3029,-0.3065,-0.31,-0.3114,-0.3117,-0.3133,-0.3124,-0.3109,-0.3108,-0.3135,-0.3123,-0.3108,-0.3143,-0.311,-0.3114,-0.3153,-0.3162,-0.3169,-0.316,-0.3061,0,0,0,0,0,-0.2938,-0.2969,-0.3019,-0.3044,-0.3066,-0.309,-0.3108,-0.3116,-0.3138,-0.3142,-0.3142,-0.3141,-0.3154,-0.3157,-0.3167,-0.3197,-0.3168,-0.3202,-0.321,-0.3216,-0.321,-0.3211,-0.3218,-0.3148,-0.3148,-0.3147,0,0,-0.2926,-0.2964,-0.2976,-0.304,-0.3063,-0.3108,-0.3095,-0.3132,-0.3158,-0.3139,-0.3167,-0.3172,-0.317,-0.3202,-0.321,-0.319,-0.3218,-0.322,-0.3225,-0.3216,-0.3215,-0.3222,-0.3228,-0.315,-0.3149,-0.3149,0,0,-0.2933,-0.2962,-0.2995,-0.3037,-0.309,-0.3116,-0.3129,-0.3174,-0.3182,-0.3227,-0.3212,-0.3231,-0.3252,-0.3255,-0.3257,-0.3314,-0.3261,-0.331,-0.3336,-0.3338,-0.3343,-0.3348,-0.3302,-0.3301,-0.3309,-0.3309,-0.3309,0,-0.2913,-0.2971,-0.301,-0.3061,-0.3093,-0.3121,-0.3165,-0.3191,-0.3236,-0.325,-0.3239,-0.3279,-0.3276,-0.3309,-0.3324,-0.3329,-0.3305,-0.3302,-0.3346,-0.335,-0.3354,-0.3306,-0.3305,-0.3312,-0.3312,-0.3311,-0.3311,0,-0.2955,-0.2999,-0.3025,-0.3098,-0.3139,-0.3183,-0.3234,-0.3266,-0.3278,-0.33,-0.3339,-0.335,-0.3365,-0.3371,-0.3364,-0.339,-0.3356,-0.3359,-0.3321,-0.3364,-0.3311,-0.3309,-0.3317,-0.3316,-0.3315,-0.3314,0,0,-0.2902,-0.303,-0.3034,-0.3074,-0.3164,-0.32,-0.3257,-0.3316,-0.333,-0.3378,-0.3395,-0.3437,-0.3432,-0.3434,-0.3429,-0.3432,-0.3431,-0.3405,-0.3403,-0.3353,-0.3399,-0.3167,-0.3142,-0.3445,-0.3446,-0.3446,-0.3344,0,-0.2915,-0.3014,-0.3075,-0.3146,-0.3199,-0.3254,-0.3299,-0.3353,-0.3379,-0.3404,-0.343,-0.3442,-0.3458,-0.3451,-0.347,-0.3435,-0.3431,-0.3455,-0.3369,-0.3365,-0.315,-0.3134,-0.2994,-0.2873,-0.3342,-0.3341,-0.3341,0,-0.2927,-0.2997,-0.3081,-0.3177,-0.3201,-0.3242,-0.3306,-0.3351,-0.3402,-0.342,-0.3456,-0.3459,-0.3476,-0.3474,-0.3461,-0.3475,-0.3443,-0.3419,-0.3415,-0.3172,-0.3129,-0.291,-0.2851,-0.2804,-0.3337,-0.3337,-0.3337,0,-0.287,-0.2988,-0.3053,-0.309,-0.3209,-0.3239,-0.3287,-0.3349,-0.3368,-0.3412,-0.3404,-0.3455,-0.3426,-0.3445,-0.3383,-0.343,-0.3328,-0.3388,-0.3154,-0.3137,-0.2982,-0.2948,-0.2857,-0.3379,-0.3379,-0.3379,-0.3379,0,-0.2861,-0.29,-0.3027,-0.3063,-0.3111,-0.3203,-0.3231,-0.3285,-0.333,-0.332,-0.3392,-0.3357,-0.3415,-0.336,-0.3361,-0.3199,-0.3309,-0.313,-0.309,-0.2994,-0.2964,-0.2885,-0.2935,-0.3375,-0.3376,-0.3377,-0.3378,0,-0.2782,-0.2872,-0.2942,-0.3063,-0.3089,-0.3116,-0.3187,-0.3197,-0.3252,-0.3231,-0.3235,-0.3261,-0.3175,-0.3179,-0.3143,-0.3095,-0.2931,-0.2935,-0.2778,-0.2718,-0.245,-0.2508,-0.237,-0.2309,-0.268,-0.2674,-0.2669,0,-0.2756,-0.2789,-0.2911,-0.2935,-0.2983,-0.3033,-0.3054,-0.314,-0.3135,-0.314,-0.3103,-0.3034,-0.2951,-0.279,-0.2691,-0.2595,-0.2661,-0.2388,-0.2454,-0.2369,-0.2411,-0.2481,-0.2451,-0.229,-0.2282,-0.2275,-0.227,0,-0.2686,-0.2725,-0.2784,-0.2842,-0.2871,-0.2894,-0.2922,-0.2909,-0.2967,-0.2953,-0.2869,-0.2809,-0.2621,-0.2422,-0.2249,-0.2197,-0.2297,-0.2241,-0.2232,-0.213,-0.213,-0.2072,-0.2407,-0.2211,-0.2217,-0.2221,-0.2224,-0.2227,-0.2603,-0.2615,-0.2686,-0.2722,-0.2749,-0.2719,-0.2653,-0.2693,-0.266,-0.2575,-0.2619,-0.2459,-0.2269,-0.2002,-0.1907,-0.164,-0.1837,-0.163,-0.1719,-0.1804,-0.1705,-0.1845,-0.1548,-0.155,-0.1552,-0.1553,-0.1554,0,-0.2488,-0.2511,-0.2554,-0.2569,-0.2523,-0.2582,-0.2523,-0.2424,-0.2319,-0.2316,-0.2243,-0.1994,-0.1754,-0.1579,-0.1285,-0.1181,-0.1239,-0.1168,-0.1314,-0.1319,-0.1491,-0.1428,-0.0992,-0.0992,-0.0992,-0.0992,-0.0992,-0.0992,-0.2423,-0.2408,-0.2437,-0.2332,-0.2319,-0.2111,-0.2022,-0.1945,-0.1885,-0.1724,-0.1585,-0.1529,-0.135,-0.1258,-0.1018,-0.0957,-0.1013,-0.0947,-0.1033,-0.1234,-0.1288,-0.134,-0.1289,-0.0831,-0.0831,-0.0811,-0.0811,-0.0811]},{"header":{"parameterUnit":"m.s-1","parameterCategory":2,"la1":30.2991,"la2":30.254,"lo1":-89.0895,"lo2":-89.0444,"dy":0.0017,"dx":0.0017,"nx":28,"ny":28,"refTime":"2025-09-06T21:00:00:Z","depth":"0","parameterNumber":3,"parameterNumberName":"V-component_of_CURRENTS"},"data":[0,0,0,0,0,0,0,0,0,0,0,0,0,0,0,0,0,0,0,0,0,0,0,0,0,0,0,0,0,0,0,0,0,0,0,0,0,0,0,0,0,0,0,0,0,0,0,0,0,0,0,0,0,0,0,0,0,0,-0.1249,-0.1249,0,-0.1163,-0.1162,-0.116,-0.1095,-0.1094,-0.1094,-0.1094,-0.0845,-0.0839,-0.0832,0,0,0,0,0,0,0,0,0,0,0,0,0,-0.1261,-0.1261,-0.1249,-0.1249,-0.1248,-0.1163,-0.1162,-0.116,-0.1095,-0.1094,-0.1094,-0.1094,-0.0847,-0.084,-0.0832,0,0,0,0,0,0,0,0,0,0,0,0,0,-0.1219,-0.1261,-0.125,-0.1208,-0.1204,-0.1163,-0.1162,-0.116,-0.1095,-0.1094,-0.1094,-0.1094,-0.085,-0.084,-0.0831,-0.0778,0,0,-0.0801,-0.0797,0,0,0,0,0,0,0,0,-0.1222,-0.1219,-0.1215,-0.1211,-0.1206,-0.1143,-0.1074,-0.1025,-0.1095,-0.1132,-0.1094,-0.1094,-0.0932,-0.0916,-0.0897,-0.0766,-0.0755,-0.08,-0.0795,-0.079,-0.0788,0,0,0,0,0,0,0,-0.1225,-0.1221,-0.1211,-0.1214,-0.1209,-0.1161,-0.1155,-0.1065,-0.1029,-0.1128,-0.1125,-0.1122,-0.0928,-0.0907,-0.089,-0.0752,-0.0801,-0.0792,-0.0786,-0.0782,-0.0505,-0.0503,0,0,0,0,0,0,-0.125,-0.1225,-0.1214,-0.1209,-0.1218,-0.1162,-0.1155,-0.116,-0.1033,-0.1016,-0.1122,-0.1119,-0.0923,-0.0902,-0.0881,-0.0783,-0.0791,-0.0782,-0.0776,-0.0507,-0.0505,-0.0503,0,0,0,0,0,0,-0.1251,-0.125,-0.1217,-0.1217,-0.121,-0.1163,-0.1169,-0.1159,-0.1138,-0.1031,-0.101,-0.1113,-0.0922,-0.0894,-0.0796,-0.0773,-0.0777,-0.0768,-0.0508,-0.0506,-0.0504,-0.0603,0,0,0,0,0,0,-0.1251,-0.1251,-0.1258,-0.122,-0.1212,-0.1197,-0.1169,-0.1157,-0.1139,-0.1134,-0.1015,-0.0993,-0.092,-0.0811,-0.0787,-0.076,-0.0761,-0.051,-0.0507,-0.0505,-0.0602,-0.0605,-0.0607,0,0,0,0,0,-0.1252,-0.127,-0.1259,-0.1257,-0.1225,-0.1198,-0.1188,-0.115,-0.114,-0.113,-0.1047,-0.0996,-0.0774,-0.0803,-0.0774,-0.0744,-0.0512,-0.0508,-0.0505,-0.0601,-0.0604,-0.0607,0,0,0,0,0,0,-0.1276,-0.1264,-0.1251,-0.1264,-0.1234,-0.1188,-0.1181,-0.1157,-0.1089,-0.108,-0.0979,-0.095,-0.0855,-0.0782,-0.0816,-0.0652,-0.0632,-0.0623,-0.0715,-0.0717,-0.0719,-0.0741,-0.0753,0,0,0,0,0,-0.1288,-0.1298,-0.127,-0.1277,-0.1269,-0.1226,-0.1211,-0.1186,-0.1127,-0.1099,-0.1015,-0.0914,-0.0817,-0.0758,-0.0666,-0.0577,-0.0539,-0.0534,-0.0537,-0.054,-0.0536,-0.0476,-0.0474,-0.0491,-0.0491,-0.0491,0,0,-0.1298,-0.1294,-0.1298,-0.1283,-0.1259,-0.1242,-0.1215,-0.12,-0.117,-0.1078,-0.1005,-0.0923,-0.0797,-0.0702,-0.0651,-0.0638,-0.0517,-0.0535,-0.0539,-0.0533,-0.0472,-0.0471,-0.047,-0.0489,-0.0489,-0.049,0,0,-0.1326,-0.1323,-0.1338,-0.1317,-0.1293,-0.1262,-0.1263,-0.1215,-0.1179,-0.1108,-0.1029,-0.094,-0.0797,-0.0704,-0.0637,-0.0592,-0.054,-0.0556,-0.0575,-0.0518,-0.0518,-0.0516,-0.0494,-0.0489,-0.0549,-0.0549,-0.0549,0,-0.1336,-0.135,-0.1334,-0.1335,-0.1317,-0.1276,-0.127,-0.1226,-0.1147,-0.1105,-0.1094,-0.0887,-0.0796,-0.0662,-0.065,-0.0599,-0.0573,-0.0585,-0.0527,-0.0524,-0.0522,-0.0498,-0.0492,-0.0553,-0.0553,-0.0552,-0.0552,0,-0.1369,-0.137,-0.1376,-0.1361,-0.1339,-0.1329,-0.1274,-0.1234,-0.1192,-0.1139,-0.1023,-0.0907,-0.0781,-0.0737,-0.0679,-0.0592,-0.0585,-0.0553,-0.0537,-0.0527,-0.0501,-0.0494,-0.0559,-0.0558,-0.0557,-0.0556,0,0,-0.1412,-0.1402,-0.1401,-0.139,-0.1351,-0.1333,-0.1285,-0.122,-0.1175,-0.1098,-0.1027,-0.0879,-0.0829,-0.0749,-0.0661,-0.0608,-0.0581,-0.058,-0.0575,-0.0588,-0.0484,-0.0409,-0.0394,-0.0549,-0.0547,-0.0546,-0.0487,0,-0.1435,-0.1447,-0.1428,-0.1411,-0.1406,-0.1347,-0.1301,-0.1234,-0.1163,-0.1083,-0.0972,-0.0871,-0.0826,-0.0766,-0.0708,-0.0604,-0.056,-0.0601,-0.0463,-0.0459,-0.0418,-0.0381,-0.0312,-0.0246,-0.0479,-0.0478,-0.0477,0,-0.1469,-0.1469,-0.1473,-0.1427,-0.1418,-0.1398,-0.1311,-0.126,-0.1143,-0.1087,-0.0984,-0.0899,-0.0786,-0.0762,-0.0611,-0.0645,-0.0573,-0.051,-0.0506,-0.0391,-0.0367,-0.0281,-0.0223,-0.0052,-0.0465,-0.0465,-0.0466,0,-0.151,-0.1492,-0.1496,-0.1483,-0.1432,-0.1409,-0.1367,-0.1265,-0.1203,-0.1086,-0.1036,-0.0902,-0.0826,-0.0726,-0.06,-0.0606,-0.0458,-0.0442,-0.031,-0.0306,-0.0192,-0.018,0.003,-0.0342,-0.0342,-0.0343,-0.0343,0,-0.1544,-0.1539,-0.1517,-0.1518,-0.1497,-0.1446,-0.1392,-0.1328,-0.1222,-0.1152,-0.1043,-0.0968,-0.0815,-0.0707,-0.061,-0.0436,-0.0462,-0.0302,-0.0269,-0.0225,-0.0216,-0.0017,0.002,-0.034,-0.0341,-0.0341,-0.0342,0,-0.1589,-0.1579,-0.1577,-0.154,-0.1523,-0.1508,-0.1421,-0.1365,-0.1278,-0.1184,-0.1152,-0.1009,-0.0881,-0.0729,-0.0559,-0.0431,-0.0178,-0.022,-0.0194,-0.0157,0.0144,0.0171,0.0376,0.0467,-0.0056,-0.0053,-0.0051,0,-0.1611,-0.1623,-0.1605,-0.1596,-0.1582,-0.1542,-0.15,-0.1405,-0.1341,-0.1212,-0.117,-0.1029,-0.0949,-0.0674,-0.0413,-0.0206,-0.0098,0.0014,0.0043,0.0192,0.0246,0.025,0.031,0.0133,0.0136,0.0139,0.0141,0,-0.1645,-0.165,-0.1652,-0.1642,-0.1616,-0.1564,-0.1502,-0.1472,-0.1358,-0.1318,-0.1252,-0.1197,-0.089,-0.0613,-0.028,-0.0131,0.0152,0.0081,0.0247,0.0433,0.0441,0.0532,0.0027,0.0166,0.0164,0.0162,0.0161,0.016,-0.1664,-0.1683,-0.169,-0.1675,-0.1638,-0.1586,-0.155,-0.1518,-0.1481,-0.1414,-0.1348,-0.1177,-0.0725,-0.0258,-0.0085,0.0434,0.0336,0.0585,0.0605,0.0595,0.0706,0.0246,0.0423,0.0422,0.0421,0.042,0.042,0,-0.1682,-0.1701,-0.1702,-0.1679,-0.1632,-0.1599,-0.1537,-0.1516,-0.1531,-0.1423,-0.1399,-0.0781,-0.0398,0.0092,0.0731,0.0958,0.0987,0.1065,0.1098,0.1135,0.0759,0.0797,0.1051,0.1051,0.1051,0.1051,0.1051,0.105,-0.1689,-0.172,-0.1728,-0.1673,-0.1631,-0.153,-0.1496,-0.1529,-0.1433,-0.1221,-0.0826,-0.0513,0.0248,0.0869,0.1383,0.143,0.1579,0.1546,0.1609,0.1367,0.1323,0.1282,0.1333,0.1695,0.1696,0.2,0.2003,0.2005]}],[{"header":{"parameterUnit":"m.s-1","parameterCategory":2,"la1":30.2991,"la2":30.254,"lo1":-89.0895,"lo2":-89.0444,"dy":0.0017,"dx":0.0017,"nx":28,"ny":28,"refTime":"2025-09-06T21:00:00:Z","depth":"2","parameterNumber":2,"parameterNumberName":"U-component_of_CURRENTS"},"data":[0,0,0,0,0,0,0,0,0,0,0,0,0,0,0,0,0,0,0,0,0,0,0,0,0,0,0,0,0,0,0,0,0,0,0,0,0,0,0,0,0,0,0,0,0,0,0,0,0,0,0,0,0,0,0,0,0,0,-0.1986,-0.1986,0,-0.2035,-0.2037,-0.2038,-0.2107,-0.2107,-0.2107,-0.2107,-0.2192,-0.2194,-0.2196,0,0,0,0,0,0,0,0,0,0,0,0,0,-0.1959,-0.1961,-0.1986,-0.1986,-0.1985,-0.2035,-0.2037,-0.2039,-0.2107,-0.2107,-0.2107,-0.2107,-0.2191,-0.2194,-0.2197,0,0,0,0,0,0,0,0,0,0,0,0,0,-0.1998,-0.1961,-0.1986,-0.2017,-0.2019,-0.2034,-0.2037,-0.2039,-0.2107,-0.2107,-0.2107,-0.2107,-0.219,-0.2194,-0.2197,-0.2215,0,0,-0.2207,-0.2208,0,0,0,0,0,0,0,0,-0.1995,-0.2,-0.2013,-0.2014,-0.2017,-0.2054,-0.2058,-0.2096,-0.2107,-0.2087,-0.2107,-0.2107,-0.2141,-0.2149,-0.2175,-0.2219,-0.2223,-0.2207,-0.2209,-0.2211,-0.2212,0,0,0,0,0,0,0,-0.1993,-0.1998,-0.2018,-0.2012,-0.2014,-0.2029,-0.2036,-0.2066,-0.2123,-0.2088,-0.209,-0.2076,-0.2144,-0.2171,-0.2177,-0.2224,-0.2207,-0.221,-0.2212,-0.2213,-0.2282,-0.2282,0,0,0,0,0,0,-0.1962,-0.1996,-0.2016,-0.2018,-0.1992,-0.2028,-0.2037,-0.2052,-0.2122,-0.2129,-0.2076,-0.2079,-0.2166,-0.2173,-0.218,-0.2268,-0.2211,-0.2214,-0.2216,-0.2282,-0.2282,-0.2282,0,0,0,0,0,0,-0.1962,-0.1964,-0.2014,-0.1996,-0.2002,-0.2027,-0.2045,-0.2053,-0.2096,-0.211,-0.212,-0.2111,-0.2166,-0.2175,-0.2171,-0.2269,-0.2215,-0.2218,-0.2282,-0.2282,-0.2282,-0.2405,0,0,0,0,0,0,-0.1961,-0.1965,-0.1983,-0.1995,-0.2002,-0.2024,-0.2044,-0.2053,-0.208,-0.2085,-0.2143,-0.215,-0.2167,-0.2165,-0.2174,-0.2273,-0.2221,-0.2283,-0.2282,-0.2282,-0.2401,-0.2409,-0.2416,0,0,0,0,0,-0.1961,-0.1977,-0.1985,-0.1987,-0.2021,-0.2023,-0.203,-0.2055,-0.2081,-0.2098,-0.2102,-0.2149,-0.2172,-0.2166,-0.2177,-0.228,-0.2283,-0.2282,-0.2282,-0.2398,-0.2407,-0.2415,0,0,0,0,0,0,-0.1975,-0.1985,-0.1994,-0.2014,-0.2015,-0.203,-0.2052,-0.2065,-0.2091,-0.2096,-0.2127,-0.2132,-0.2172,-0.2176,-0.217,-0.2287,-0.2245,-0.2247,-0.2329,-0.2338,-0.2346,-0.238,-0.2224,0,0,0,0,0,-0.1982,-0.2006,-0.2001,-0.2019,-0.2025,-0.2046,-0.2057,-0.2061,-0.2069,-0.2085,-0.2118,-0.2145,-0.2179,-0.2212,-0.2221,-0.2282,-0.2242,-0.2354,-0.2361,-0.2368,-0.2396,-0.2352,-0.2359,-0.2281,-0.2281,-0.2281,0,0,-0.1996,-0.1998,-0.2016,-0.2024,-0.2043,-0.2078,-0.2059,-0.2067,-0.2103,-0.2087,-0.2155,-0.2159,-0.2186,-0.2246,-0.2272,-0.2271,-0.2364,-0.2368,-0.2375,-0.2399,-0.2353,-0.2361,-0.2368,-0.228,-0.2281,-0.2281,0,0,-0.2007,-0.2038,-0.2053,-0.2074,-0.2071,-0.2093,-0.2097,-0.2112,-0.213,-0.2157,-0.2166,-0.2204,-0.2261,-0.2309,-0.2342,-0.2388,-0.2382,-0.2411,-0.252,-0.2477,-0.2484,-0.249,-0.2436,-0.2436,-0.2443,-0.2444,-0.2444,0,-0.2016,-0.2047,-0.2054,-0.2079,-0.2105,-0.2112,-0.214,-0.2172,-0.2179,-0.22,-0.2184,-0.2282,-0.2306,-0.2413,-0.2443,-0.2422,-0.2373,-0.2499,-0.2491,-0.2496,-0.25,-0.2443,-0.2442,-0.2449,-0.2449,-0.2448,-0.2448,0,-0.2047,-0.2082,-0.2099,-0.2155,-0.218,-0.2205,-0.2231,-0.2258,-0.2285,-0.2321,-0.2385,-0.2395,-0.2467,-0.2498,-0.2504,-0.2582,-0.2528,-0.2486,-0.2481,-0.2516,-0.2452,-0.2449,-0.2458,-0.2456,-0.2454,-0.2453,0,0,-0.2052,-0.2105,-0.2129,-0.2163,-0.2221,-0.2251,-0.2307,-0.2362,-0.2429,-0.2457,-0.2517,-0.2621,-0.2639,-0.2671,-0.2687,-0.2688,-0.2683,-0.2626,-0.2621,-0.2596,-0.2574,-0.239,-0.2367,-0.2634,-0.2634,-0.2635,-0.2515,0,-0.2078,-0.2133,-0.2163,-0.2262,-0.2291,-0.2335,-0.2418,-0.2471,-0.2503,-0.2561,-0.2598,-0.266,-0.2706,-0.2732,-0.2757,-0.2677,-0.2681,-0.2719,-0.2524,-0.2519,-0.237,-0.236,-0.2237,-0.2106,-0.2511,-0.251,-0.251,0,-0.2088,-0.2138,-0.2197,-0.2309,-0.2339,-0.2411,-0.2527,-0.259,-0.2667,-0.2688,-0.2759,-0.2758,-0.2818,-0.279,-0.2765,-0.2781,-0.2712,-0.2647,-0.2639,-0.2429,-0.2328,-0.2135,-0.2084,-0.2503,-0.2503,-0.2504,-0.2504,0,-0.2067,-0.2163,-0.2213,-0.2258,-0.2389,-0.2434,-0.2525,-0.2626,-0.2672,-0.2738,-0.2742,-0.283,-0.2803,-0.2774,-0.2676,-0.2714,-0.2552,-0.2571,-0.2352,-0.2337,-0.2176,-0.2145,-0.2532,-0.2532,-0.2532,-0.2533,-0.2533,0,-0.206,-0.2126,-0.2212,-0.2272,-0.2355,-0.2456,-0.2555,-0.2636,-0.2727,-0.2735,-0.2813,-0.2756,-0.2786,-0.2687,-0.2647,-0.2462,-0.2532,-0.2366,-0.2292,-0.2208,-0.2183,-0.2487,-0.2483,-0.2528,-0.2529,-0.253,-0.2531,0,-0.2023,-0.2066,-0.2142,-0.2296,-0.2322,-0.2393,-0.2529,-0.2586,-0.2706,-0.2673,-0.2673,-0.2682,-0.2539,-0.2522,-0.2397,-0.2366,-0.2233,-0.2144,-0.2035,-0.1951,-0.2072,-0.2076,-0.1935,-0.1928,-0.1921,-0.1916,-0.1911,0,-0.2041,-0.2054,-0.215,-0.2158,-0.2219,-0.232,-0.235,-0.2513,-0.2527,-0.2557,-0.2482,-0.2392,-0.2243,-0.2049,-0.1952,-0.184,-0.1969,-0.1668,-0.1739,-0.2067,-0.2011,-0.2025,-0.2037,-0.158,-0.1573,-0.1567,-0.1563,0,-0.2086,-0.2077,-0.2134,-0.2106,-0.2111,-0.2149,-0.2203,-0.2193,-0.2297,-0.2286,-0.2154,-0.2052,-0.1855,-0.1649,-0.1528,-0.1459,-0.1695,-0.1545,-0.1889,-0.1734,-0.1717,-0.1666,-0.1693,-0.1513,-0.1518,-0.1522,-0.1524,-0.1526,-0.2108,-0.2098,-0.208,-0.2016,-0.203,-0.1947,-0.1907,-0.1932,-0.1896,-0.1827,-0.179,-0.1627,-0.156,-0.1289,-0.1167,-0.1121,-0.1256,-0.1273,-0.1297,-0.1326,-0.129,-0.1261,-0.0965,-0.0967,-0.0969,-0.097,-0.0971,0,-0.2038,-0.1981,-0.1984,-0.1862,-0.1786,-0.1825,-0.1772,-0.1697,-0.1546,-0.1504,-0.1417,-0.1198,-0.1032,-0.0995,-0.0834,-0.0784,-0.0868,-0.077,-0.0915,-0.0961,-0.1003,-0.096,-0.0543,-0.0542,-0.0541,-0.054,0,0,-0.1964,-0.1843,-0.1772,-0.1565,-0.1533,-0.1404,-0.1326,-0.1241,-0.1217,-0.1079,-0.1017,-0.1024,-0.0978,-0.0778,-0.0704,-0.0604,-0.0794,-0.0572,-0.0914,-0.1132,-0.1173,-0.1278,-0.1259,0,0,0,0,0]},{"header":{"parameterUnit":"m.s-1","parameterCategory":2,"la1":30.2991,"la2":30.254,"lo1":-89.0895,"lo2":-89.0444,"dy":0.0017,"dx":0.0017,"nx":28,"ny":28,"refTime":"2025-09-06T21:00:00:Z","depth":"2","parameterNumber":3,"parameterNumberName":"V-component_of_CURRENTS"},"data":[0,0,0,0,0,0,0,0,0,0,0,0,0,0,0,0,0,0,0,0,0,0,0,0,0,0,0,0,0,0,0,0,0,0,0,0,0,0,0,0,0,0,0,0,0,0,0,0,0,0,0,0,0,0,0,0,0,0,-0.0069,-0.0068,0,0.0012,0.0014,0.0015,0.0106,0.0106,0.0107,0.0108,0.0287,0.0291,0.0296,0,0,0,0,0,0,0,0,0,0,0,0,0,-0.0066,-0.0066,-0.0069,-0.0068,-0.0068,0.0012,0.0014,0.0016,0.0106,0.0106,0.0107,0.0108,0.0286,0.0291,0.0296,0,0,0,0,0,0,0,0,0,0,0,0,0,-0.0027,-0.0066,-0.0069,-0.0019,-0.0014,0.0012,0.0014,0.0016,0.0106,0.0106,0.0107,0.0108,0.0284,0.029,0.0297,0.0316,0,0,0.0316,0.0319,0,0,0,0,0,0,0,0,-0.003,-0.0026,-0.0027,-0.0022,-0.0017,0.0043,0.0081,0.0119,0.0105,0.0068,0.0108,0.0109,0.0209,0.0222,0.0244,0.0325,0.0332,0.0316,0.032,0.0323,0.0325,0,0,0,0,0,0,0,-0.0032,-0.0029,-0.0029,-0.0027,-0.0021,0.0026,0.0033,0.0089,0.014,0.0071,0.0076,0.0073,0.0214,0.0238,0.0249,0.0335,0.0316,0.0322,0.0326,0.0328,0.0413,0.0412,0,0,0,0,0,0,-0.0063,-0.0032,-0.0032,-0.0027,-0.003,0.0024,0.0032,0.0029,0.0137,0.0152,0.0072,0.0077,0.0227,0.0242,0.0256,0.0304,0.0323,0.0329,0.0332,0.0415,0.0413,0.0412,0,0,0,0,0,0,-0.0063,-0.0064,-0.0035,-0.0033,-0.0028,0.0022,0.0019,0.003,0.0059,0.0135,0.0154,0.0088,0.0228,0.0247,0.0278,0.0311,0.0332,0.0337,0.0417,0.0414,0.0412,0.0388,0,0,0,0,0,0,-0.0063,-0.0064,-0.007,-0.0036,-0.0029,-0.0031,0.0017,0.0031,0.0051,0.0059,0.0155,0.0173,0.023,0.0268,0.0284,0.032,0.0342,0.0419,0.0416,0.0413,0.0391,0.0385,0.038,0,0,0,0,0,-0.0064,-0.0084,-0.0071,-0.0071,-0.0042,-0.0033,-0.0025,0.002,0.0051,0.0053,0.0101,0.017,0.0262,0.0271,0.0291,0.0329,0.042,0.0417,0.0413,0.0393,0.0386,0.038,0,0,0,0,0,0,-0.008,-0.0077,-0.0061,-0.0077,-0.0063,-0.0021,-0.0014,0.0014,0.0057,0.0069,0.0149,0.0168,0.0204,0.025,0.0258,0.0336,0.0354,0.0354,0.0331,0.0326,0.0321,0.0377,0.0347,0,0,0,0,0,-0.0093,-0.0105,-0.0091,-0.0101,-0.0097,-0.0054,-0.0042,-0.0018,0.0017,0.0039,0.0101,0.0159,0.0205,0.0249,0.0285,0.0337,0.0382,0.0369,0.0364,0.036,0.0412,0.0467,0.0474,0.04,0.04,0.0401,0,0,-0.0097,-0.0101,-0.0104,-0.0106,-0.0082,-0.0086,-0.0042,-0.0034,-0.0025,0.0051,0.0089,0.0135,0.0202,0.0248,0.0273,0.03,0.0389,0.0356,0.0352,0.0409,0.0465,0.0473,0.048,0.0398,0.0399,0.0399,0,0,-0.0134,-0.012,-0.0149,-0.0141,-0.0135,-0.0109,-0.0113,-0.0078,-0.0047,-0.0026,0.0032,0.0106,0.0158,0.0245,0.0288,0.0279,0.034,0.0267,0.0327,0.0377,0.0386,0.0394,0.0408,0.0418,0.029,0.029,0.029,0,-0.0142,-0.0176,-0.0153,-0.0178,-0.0175,-0.0125,-0.0146,-0.011,-0.0069,-0.0027,-0.0027,0.0113,0.0175,0.0286,0.0289,0.0283,0.0291,0.035,0.0376,0.0386,0.0395,0.0408,0.0419,0.0289,0.0289,0.0289,0.0289,0,-0.0194,-0.0221,-0.0233,-0.0245,-0.0236,-0.0245,-0.0208,-0.0183,-0.0142,-0.0078,0.0015,0.0103,0.0206,0.0229,0.027,0.0374,0.0347,0.0344,0.0405,0.0402,0.0413,0.0426,0.0286,0.0287,0.0287,0.0288,0,0,-0.0218,-0.0265,-0.0266,-0.0288,-0.0274,-0.0272,-0.0254,-0.0202,-0.0149,-0.0076,0.0005,0.0134,0.0224,0.028,0.035,0.0438,0.0498,0.0428,0.0432,0.0465,0.0572,0.0504,0.0511,0.0483,0.0487,0.0489,0.0537,0,-0.0265,-0.0346,-0.0337,-0.0375,-0.0412,-0.0353,-0.0321,-0.0256,-0.0185,-0.0094,0.0057,0.0142,0.0227,0.0276,0.0387,0.0459,0.0537,0.0484,0.0554,0.0557,0.0517,0.0527,0.0513,0.0552,0.055,0.0552,0.0553,0,-0.0325,-0.0373,-0.0445,-0.045,-0.0447,-0.0443,-0.0369,-0.0331,-0.018,-0.0118,0.0032,0.0124,0.0296,0.0327,0.0529,0.0476,0.0542,0.0604,0.0606,0.0582,0.0515,0.0563,0.0575,0.0575,0.0573,0.0571,0.057,0,-0.0388,-0.044,-0.0503,-0.0508,-0.0499,-0.0491,-0.0453,-0.033,-0.028,-0.0134,-0.008,0.0127,0.0213,0.0349,0.0507,0.0496,0.0692,0.0672,0.0683,0.0676,0.0708,0.0699,0.0814,0.0814,0.0814,0.0814,0.0814,0,-0.046,-0.05,-0.0538,-0.0572,-0.0593,-0.0543,-0.0503,-0.044,-0.0317,-0.0229,-0.0083,0.0002,0.0222,0.0358,0.0489,0.0631,0.0672,0.0721,0.0704,0.0686,0.0675,0.0742,0.0733,0.0816,0.0815,0.0815,0.0814,0,-0.0526,-0.0559,-0.0635,-0.0645,-0.0646,-0.0654,-0.0591,-0.0541,-0.0419,-0.0321,-0.0292,-0.0097,0.0057,0.0265,0.0475,0.0585,0.0724,0.076,0.0709,0.0686,0.0671,0.066,0.076,0.0759,0.0758,0.0756,0.0756,0,-0.056,-0.0619,-0.0702,-0.0743,-0.0756,-0.075,-0.0733,-0.0626,-0.0572,-0.0379,-0.0344,-0.0182,-0.0052,0.0222,0.0429,0.0622,0.0674,0.0709,0.0711,0.0703,0.0676,0.0666,0.0657,0.0723,0.0722,0.0721,0.072,0,-0.0623,-0.0667,-0.0738,-0.0827,-0.0861,-0.087,-0.0838,-0.0817,-0.0652,-0.0567,-0.0436,-0.0332,-0.0067,0.0149,0.0399,0.0516,0.0673,0.0689,0.0736,0.0718,0.0666,0.0639,0.0632,0.0712,0.0713,0.0714,0.0714,0.0714,-0.0656,-0.0731,-0.0828,-0.0899,-0.0943,-0.0955,-0.0946,-0.088,-0.0804,-0.0602,-0.0513,-0.0297,-0.0085,0.0257,0.0407,0.0565,0.0579,0.0656,0.066,0.0666,0.0632,0.0579,0.0601,0.0601,0.0601,0.0602,0.0602,0,-0.0692,-0.0785,-0.0868,-0.0954,-0.0984,-0.0995,-0.098,-0.0928,-0.084,-0.0633,-0.0476,-0.0233,0.0014,0.0224,0.0456,0.0572,0.0599,0.0588,0.0626,0.0633,0.064,0.0607,0.0569,0.0569,0.0569,0.0569,0,0,-0.0723,-0.0836,-0.0887,-0.0958,-0.0993,-0.102,-0.1015,-0.0945,-0.0811,-0.0613,-0.0414,-0.0149,0.0067,0.0229,0.0376,0.0482,0.0523,0.0482,0.0501,0.0536,0.0541,0.0674,0.0629,0,0,0,0,0]}],[{"header":{"parameterUnit":"m.s-1","parameterCategory":2,"la1":30.2991,"la2":30.254,"lo1":-89.0895,"lo2":-89.0444,"dy":0.0017,"dx":0.0017,"nx":28,"ny":28,"refTime":"2025-09-06T21:00:00:Z","depth":"4","parameterNumber":2,"parameterNumberName":"U-component_of_CURRENTS"},"data":[0,0,0,0,0,0,0,0,0,0,0,0,0,0,0,0,0,0,0,0,0,0,0,0,0,0,0,0,0,0,0,0,0,0,0,0,0,0,0,0,0,0,0,0,0,0,0,0,0,0,0,0,0,0,0,0,0,0,-0.103,-0.103,0,-0.1099,-0.1099,-0.11,-0.114,-0.114,-0.1141,-0.1141,-0.1189,-0.119,-0.1191,0,0,0,0,0,0,0,0,0,0,0,0,0,-0.0936,-0.0938,-0.1029,-0.1031,-0.1032,-0.1098,-0.1099,-0.11,-0.114,-0.114,-0.1141,-0.1141,-0.1189,-0.119,-0.1191,0,0,0,0,0,0,0,0,0,0,0,0,0,-0.0985,-0.0938,-0.1029,-0.1062,-0.1066,-0.1098,-0.1099,-0.11,-0.114,-0.114,-0.1141,-0.1141,-0.1189,-0.119,-0.1191,-0.1187,0,0,-0.1195,-0.1196,0,0,0,0,0,0,0,0,-0.0983,-0.0988,-0.1056,-0.106,-0.1064,-0.1114,-0.1084,-0.1129,-0.1139,-0.1108,-0.1141,-0.1142,-0.1164,-0.1167,-0.1175,-0.1189,-0.1191,-0.1196,-0.1196,-0.1197,-0.1197,0,0,0,0,0,0,0,-0.0979,-0.0986,-0.1054,-0.1057,-0.1062,-0.1075,-0.1082,-0.1093,-0.1129,-0.1111,-0.1115,-0.1127,-0.1165,-0.1173,-0.1176,-0.1192,-0.1195,-0.1197,-0.1198,-0.1198,-0.1295,-0.1296,0,0,0,0,0,0,-0.0976,-0.0983,-0.1052,-0.1056,-0.1027,-0.1076,-0.1084,-0.1095,-0.1129,-0.1136,-0.1126,-0.1129,-0.1171,-0.1175,-0.1178,-0.1246,-0.1197,-0.1198,-0.1199,-0.1293,-0.1295,-0.1297,0,0,0,0,0,0,-0.0973,-0.0981,-0.1049,-0.1023,-0.1033,-0.1077,-0.1089,-0.1096,-0.1126,-0.1142,-0.1148,-0.1152,-0.1171,-0.1176,-0.1216,-0.1246,-0.1199,-0.12,-0.1291,-0.1293,-0.1296,-0.1337,0,0,0,0,0,0,-0.097,-0.098,-0.0991,-0.1023,-0.1035,-0.1088,-0.1089,-0.1097,-0.1133,-0.1137,-0.1165,-0.1169,-0.1172,-0.1214,-0.1217,-0.1247,-0.1201,-0.1288,-0.1292,-0.1295,-0.1333,-0.134,-0.1347,0,0,0,0,0,-0.0967,-0.0977,-0.0991,-0.1,-0.1047,-0.109,-0.1097,-0.1128,-0.1133,-0.1155,-0.1177,-0.117,-0.1237,-0.1216,-0.122,-0.125,-0.1287,-0.1291,-0.1295,-0.133,-0.1339,-0.1346,0,0,0,0,0,0,-0.095,-0.0983,-0.0999,-0.1021,-0.1064,-0.1098,-0.1122,-0.1138,-0.1172,-0.1179,-0.1187,-0.1194,-0.1242,-0.1242,-0.1218,-0.129,-0.1263,-0.1268,-0.1288,-0.1297,-0.1303,-0.1274,-0.1202,0,0,0,0,0,-0.0949,-0.0965,-0.1006,-0.1031,-0.1051,-0.1089,-0.1111,-0.1135,-0.1166,-0.1183,-0.1206,-0.1231,-0.1257,-0.1273,-0.1297,-0.1329,-0.1313,-0.1354,-0.1361,-0.1366,-0.1347,-0.1372,-0.1378,-0.131,-0.131,-0.131,0,0,-0.0954,-0.0973,-0.0986,-0.1028,-0.1061,-0.1097,-0.1104,-0.1148,-0.118,-0.1181,-0.1235,-0.1256,-0.1273,-0.1317,-0.1339,-0.1322,-0.1378,-0.1371,-0.1376,-0.1352,-0.1376,-0.1383,-0.1388,-0.1312,-0.1312,-0.1312,0,0,-0.0961,-0.0988,-0.1001,-0.1039,-0.109,-0.1115,-0.1132,-0.1183,-0.1209,-0.1264,-0.1272,-0.1307,-0.1358,-0.1368,-0.1379,-0.1435,-0.1415,-0.1455,-0.1461,-0.1487,-0.1492,-0.1496,-0.1477,-0.148,-0.1455,-0.1455,-0.1455,0,-0.0963,-0.0988,-0.1016,-0.1045,-0.1077,-0.1125,-0.1156,-0.1194,-0.1253,-0.1271,-0.1293,-0.1361,-0.1378,-0.1409,-0.1432,-0.1447,-0.1445,-0.1427,-0.1493,-0.1497,-0.1501,-0.1481,-0.1483,-0.1458,-0.1458,-0.1457,-0.1457,0,-0.0981,-0.1012,-0.103,-0.1077,-0.1114,-0.1156,-0.1209,-0.1251,-0.1294,-0.1326,-0.1384,-0.1414,-0.1447,-0.147,-0.1467,-0.1502,-0.1485,-0.1501,-0.1466,-0.151,-0.1486,-0.1487,-0.1461,-0.146,-0.146,-0.1459,0,0,-0.0953,-0.1023,-0.1033,-0.1059,-0.1135,-0.1164,-0.1224,-0.1278,-0.1305,-0.1379,-0.1411,-0.1469,-0.1482,-0.1493,-0.1503,-0.1519,-0.1544,-0.1519,-0.1519,-0.1486,-0.1573,-0.1468,-0.1459,-0.1579,-0.158,-0.1581,-0.1543,0,-0.0961,-0.1008,-0.1042,-0.1101,-0.1134,-0.1193,-0.1238,-0.1294,-0.1347,-0.1394,-0.1436,-0.148,-0.1494,-0.1512,-0.1535,-0.1543,-0.1551,-0.155,-0.1546,-0.1544,-0.1435,-0.1458,-0.1583,-0.1543,-0.1544,-0.1544,-0.1544,0,-0.0963,-0.0996,-0.1048,-0.1106,-0.1124,-0.1167,-0.1234,-0.1279,-0.1351,-0.1385,-0.1436,-0.1477,-0.1511,-0.1526,-0.1555,-0.1558,-0.1562,-0.1566,-0.1566,-0.1447,-0.1441,-0.1494,-0.1545,-0.1545,-0.1545,-0.1545,-0.1545,0,-0.0921,-0.0993,-0.1031,-0.1062,-0.1141,-0.1171,-0.1211,-0.1283,-0.1297,-0.138,-0.1403,-0.1465,-0.1494,-0.1526,-0.1552,-0.156,-0.1572,-0.1588,-0.149,-0.1481,-0.1568,-0.1564,-0.1603,-0.1603,-0.1603,-0.1603,-0.1603,0,-0.09,-0.0928,-0.1022,-0.1045,-0.1085,-0.115,-0.118,-0.1231,-0.1275,-0.1297,-0.1392,-0.1416,-0.1501,-0.1532,-0.1547,-0.1509,-0.1575,-0.1471,-0.1466,-0.1586,-0.1585,-0.1567,-0.1564,-0.1601,-0.1602,-0.1602,-0.1602,0,-0.0826,-0.0901,-0.0939,-0.103,-0.1068,-0.109,-0.1141,-0.115,-0.1216,-0.1247,-0.1275,-0.137,-0.1413,-0.1466,-0.1508,-0.1482,-0.1473,-0.1446,-0.1539,-0.1543,-0.1358,-0.1358,-0.1312,-0.1308,-0.1305,-0.1302,-0.13,0,-0.0785,-0.0807,-0.0911,-0.0929,-0.0969,-0.1017,-0.1046,-0.1116,-0.1117,-0.1217,-0.1218,-0.1293,-0.1357,-0.1322,-0.1386,-0.138,-0.1381,-0.1358,-0.1374,-0.1329,-0.133,-0.1335,-0.1338,-0.1294,-0.1293,-0.1292,-0.1292,0,-0.0684,-0.0733,-0.0755,-0.0813,-0.0859,-0.0899,-0.0946,-0.0952,-0.1044,-0.1096,-0.1147,-0.1192,-0.1224,-0.1261,-0.1259,-0.1267,-0.1365,-0.1323,-0.133,-0.1345,-0.1307,-0.1312,-0.132,-0.128,-0.1282,-0.1283,-0.1283,0,-0.0598,-0.0589,-0.0636,-0.0674,-0.0723,-0.0784,-0.0836,-0.0871,-0.0904,-0.103,-0.1046,-0.1148,-0.1221,-0.12,-0.1208,-0.1192,-0.1178,-0.1158,-0.1174,-0.1187,-0.1165,-0.11,-0.0989,0,0,0,0,0,-0.0511,-0.0494,-0.0495,-0.0556,-0.0593,-0.0658,-0.0758,-0.0817,-0.094,-0.0943,-0.0988,-0.1029,-0.106,-0.11,-0.1056,-0.1129,-0.117,-0.1071,-0.1154,-0.1215,-0.1229,-0.1215,0,0,0,0,0,0,-0.0458,-0.0442,-0.0452,-0.044,-0.0472,-0.0543,-0.0638,-0.0741,-0.0746,-0.0865,-0.0882,-0.0944,-0.0975,-0.1054,-0.1023,-0.103,-0.106,-0.1108,-0.1106,-0.1207,-0.122,-0.1231,-0.1221,0,0,0,0,0]},{"header":{"parameterUnit":"m.s-1","parameterCategory":2,"la1":30.2991,"la2":30.254,"lo1":-89.0895,"lo2":-89.0444,"dy":0.0017,"dx":0.0017,"nx":28,"ny":28,"refTime":"2025-09-06T21:00:00:Z","depth":"4","parameterNumber":3,"parameterNumberName":"V-component_of_CURRENTS"},"data":[0,0,0,0,0,0,0,0,0,0,0,0,0,0,0,0,0,0,0,0,0,0,0,0,0,0,0,0,0,0,0,0,0,0,0,0,0,0,0,0,0,0,0,0,0,0,0,0,0,0,0,0,0,0,0,0,0,0,-0.0165,-0.0165,0,-0.014,-0.014,-0.014,-0.0108,-0.0108,-0.0107,-0.0107,-0.0054,-0.0053,-0.0052,0,0,0,0,0,0,0,0,0,0,0,0,0,-0.0162,-0.0163,-0.0165,-0.0165,-0.0165,-0.014,-0.014,-0.014,-0.0108,-0.0108,-0.0107,-0.0107,-0.0055,-0.0053,-0.0052,0,0,0,0,0,0,0,0,0,0,0,0,0,-0.0153,-0.0163,-0.0165,-0.0146,-0.0144,-0.014,-0.014,-0.014,-0.0109,-0.0108,-0.0107,-0.0106,-0.0055,-0.0054,-0.0052,-0.0057,0,0,-0.0048,-0.0047,0,0,0,0,0,0,0,0,-0.0154,-0.0153,-0.0149,-0.0148,-0.0146,-0.0127,-0.012,-0.0111,-0.0109,-0.0122,-0.0107,-0.0106,-0.0077,-0.0073,-0.007,-0.0055,-0.0053,-0.0048,-0.0047,-0.0046,-0.0046,0,0,0,0,0,0,0,-0.0154,-0.0154,-0.0155,-0.0149,-0.0147,-0.0131,-0.0129,-0.0118,-0.0103,-0.0121,-0.0118,-0.0116,-0.0075,-0.0072,-0.0069,-0.0052,-0.0048,-0.0046,-0.0045,-0.0045,-0.0009,-0.0009,0,0,0,0,0,0,-0.016,-0.0155,-0.0156,-0.0154,-0.0148,-0.0132,-0.013,-0.0133,-0.0103,-0.0099,-0.0117,-0.0115,-0.0075,-0.007,-0.0067,-0.0073,-0.0046,-0.0045,-0.0044,-0.0009,-0.0009,-0.0009,0,0,0,0,0,0,-0.016,-0.0161,-0.0157,-0.0154,-0.0152,-0.0133,-0.0137,-0.0133,-0.0129,-0.0101,-0.0095,-0.0116,-0.0074,-0.0069,-0.0054,-0.0071,-0.0044,-0.0043,-0.0009,-0.0009,-0.0009,-0.0085,0,0,0,0,0,0,-0.0161,-0.0161,-0.017,-0.0154,-0.0153,-0.0163,-0.0138,-0.0133,-0.0129,-0.0126,-0.0099,-0.0093,-0.0073,-0.0056,-0.0053,-0.0068,-0.0042,-0.0009,-0.0009,-0.0009,-0.0083,-0.0088,-0.0092,0,0,0,0,0,-0.0161,-0.0176,-0.0171,-0.0171,-0.0165,-0.0164,-0.0162,-0.0145,-0.0129,-0.0136,-0.0109,-0.0094,-0.0052,-0.0055,-0.0051,-0.0067,-0.0009,-0.0009,-0.0009,-0.0081,-0.0087,-0.0092,0,0,0,0,0,0,-0.0177,-0.0174,-0.0168,-0.0181,-0.0177,-0.0159,-0.0163,-0.0149,-0.0134,-0.0128,-0.0097,-0.009,-0.0081,-0.0059,-0.0063,-0.0052,-0.0027,-0.0026,-0.0083,-0.0088,-0.0092,-0.011,-0.004,0,0,0,0,0,-0.0187,-0.0201,-0.0189,-0.0202,-0.0199,-0.0182,-0.0179,-0.0169,-0.0151,-0.0144,-0.0121,-0.0095,-0.0078,-0.0071,-0.005,-0.0051,-0.0006,-0.0054,-0.0058,-0.0063,-0.0071,-0.0004,-0.0003,-0.0008,-0.0008,-0.0008,0,0,-0.0197,-0.0198,-0.0206,-0.0208,-0.02,-0.0212,-0.0179,-0.0179,-0.0188,-0.0141,-0.0141,-0.011,-0.0079,-0.0076,-0.007,-0.0061,-0.0037,-0.0062,-0.0067,-0.0073,-0.0003,-0.0003,-0.0002,-0.0008,-0.0008,-0.0008,0,0,-0.0227,-0.0225,-0.0245,-0.0247,-0.0243,-0.0236,-0.0238,-0.022,-0.021,-0.0208,-0.0171,-0.0149,-0.0128,-0.0107,-0.0095,-0.0111,-0.006,-0.0102,-0.0148,-0.0083,-0.0082,-0.0081,-0.0027,-0.002,-0.011,-0.011,-0.011,0,-0.0236,-0.0264,-0.0251,-0.027,-0.0279,-0.025,-0.0273,-0.0263,-0.0243,-0.0237,-0.0217,-0.0176,-0.0145,-0.0143,-0.0145,-0.0124,-0.0078,-0.0136,-0.009,-0.0088,-0.0085,-0.003,-0.0022,-0.0113,-0.0113,-0.0113,-0.0112,0,-0.0283,-0.0303,-0.0314,-0.0334,-0.0343,-0.0357,-0.0344,-0.0342,-0.0324,-0.0308,-0.0293,-0.0248,-0.0224,-0.021,-0.0185,-0.0161,-0.0131,-0.0101,-0.0081,-0.009,-0.0031,-0.0021,-0.0119,-0.0117,-0.0116,-0.0115,0,0,-0.0296,-0.0339,-0.0342,-0.0368,-0.0378,-0.0392,-0.0407,-0.041,-0.0414,-0.0388,-0.039,-0.0354,-0.0318,-0.03,-0.026,-0.021,-0.0149,-0.0155,-0.015,-0.0112,-0.0006,-0.0012,-0.0001,-0.0107,-0.0105,-0.0104,0.0026,0,-0.0332,-0.0391,-0.0402,-0.0456,-0.0482,-0.0474,-0.0495,-0.0494,-0.0471,-0.0461,-0.0415,-0.0394,-0.0356,-0.0339,-0.0287,-0.0178,-0.0125,-0.0187,0.0005,0.001,-0.0001,0.001,-0.01,0.0034,0.0036,0.0038,0.0039,0,-0.0368,-0.0406,-0.0471,-0.0522,-0.0532,-0.0565,-0.0588,-0.0599,-0.0574,-0.0554,-0.0527,-0.0474,-0.0418,-0.037,-0.0212,-0.0251,-0.0139,-0.0053,-0.0045,-0.0019,0.0023,0.0048,0.0058,0.0057,0.0055,0.0054,0.0053,0,-0.0391,-0.045,-0.051,-0.0529,-0.0582,-0.0611,-0.0633,-0.0628,-0.0632,-0.0602,-0.0588,-0.0521,-0.0469,-0.0339,-0.0171,-0.0179,0.0021,0.0038,0.0134,0.0135,0.0134,0.0131,0.0161,0.0161,0.0161,0.016,0.016,0,-0.0423,-0.0467,-0.0529,-0.0564,-0.063,-0.0651,-0.0692,-0.0701,-0.0698,-0.0685,-0.0634,-0.0592,-0.045,-0.0321,-0.0178,0.0004,0.0022,0.0126,0.0169,0.0099,0.0091,0.0141,0.0137,0.0165,0.0164,0.0163,0.0162,0,-0.0436,-0.0478,-0.0549,-0.0622,-0.0645,-0.0692,-0.074,-0.0749,-0.075,-0.0729,-0.0719,-0.0628,-0.0455,-0.0307,-0.0078,0.0002,0.0175,0.0243,0.0149,0.0185,0.0244,0.0234,0.0346,0.0347,0.0348,0.0348,0.0349,0,-0.0451,-0.049,-0.0588,-0.0625,-0.0662,-0.0721,-0.0744,-0.0774,-0.077,-0.0726,-0.0704,-0.0568,-0.0476,-0.017,-0.0028,0.021,0.0247,0.0311,0.0271,0.0232,0.0264,0.0253,0.0243,0.035,0.035,0.0351,0.0351,0,-0.0471,-0.0509,-0.057,-0.0646,-0.0694,-0.0735,-0.0769,-0.0775,-0.077,-0.0773,-0.0648,-0.0513,-0.0329,-0.0136,0.004,0.0213,0.0245,0.032,0.0319,0.0282,0.0239,0.0267,0.0256,0.0354,0.0353,0.0353,0.0353,0,-0.0479,-0.0523,-0.0597,-0.0663,-0.0713,-0.0727,-0.0752,-0.0722,-0.0725,-0.0674,-0.0616,-0.044,-0.0345,-0.013,0.0043,0.019,0.022,0.0247,0.0251,0.0249,0.0166,0.0094,0.0204,0,0,0,0,0,-0.0473,-0.0525,-0.0595,-0.0668,-0.0708,-0.0735,-0.0751,-0.0758,-0.0748,-0.0647,-0.0636,-0.0451,-0.0213,-0.0119,0.0036,0.0037,0.0223,0.0215,0.025,0.0368,0.0365,0.0282,0,0,0,0,0,0,-0.0476,-0.0544,-0.0595,-0.0647,-0.0683,-0.0719,-0.0726,-0.0719,-0.0662,-0.0629,-0.0488,-0.0437,-0.0196,-0.0287,0.0035,0.0073,0.0109,0.0321,0.0323,0.037,0.0367,0.0365,0.0278,0,0,0,0,0]}]]